EST,Max TemperatureF,Mean TemperatureF,Min TemperatureF,Max Dew PointF,MeanDew PointF,Min DewpointF,Max Humidity, Mean Humidity, Min Humidity, Max Sea Level PressureIn, Mean Sea Level PressureIn, Min Sea Level PressureIn, Max VisibilityMiles, Mean VisibilityMiles, Min VisibilityMiles, Max Wind SpeedMPH, Mean Wind SpeedMPH, Max Gust SpeedMPH,PrecipitationIn, CloudCover, Events, WindDirDegrees
2013-2-1,73,60,47,46,38,34,66,47,27,30.30,30.25,30.21,10,10,10,17,9,23,0.00,0,,28
2013-2-2,76,63,50,56,45,35,73,55,36,30.27,30.20,30.13,10,10,10,16,7,20,0.00,0,,17
2013-2-3,75,64,53,56,44,29,84,52,20,30.21,30.13,30.09,10,10,10,14,6,18,0.00,0,,345
2013-2-4,72,60,47,53,44,31,100,62,23,30.16,30.09,30.04,10,10,7,10,4,13,0.00,1,,13
2013-2-5,78,65,51,62,53,43,87,66,45,30.09,30.05,30.01,10,10,10,14,5,17,0.00,2,,121
2013-2-6,78,69,59,64,61,55,90,76,62,30.12,30.06,30.03,10,10,10,8,4,9,0.00,1,,164
2013-2-7,81,72,62,66,64,60,100,76,51,30.07,30.02,29.96,10,10,8,17,7,22,0.00,0,,140
2013-2-8,78,72,65,72,67,62,100,82,64,30.06,30.00,29.91,10,10,7,17,9,23,0.00,2,,272
2013-2-9,81,70,58,62,59,56,100,75,49,30.16,30.10,30.05,10,7,0,15,9,20,0.00,4,Fog,45
2013-2-10,84,74,63,62,60,57,84,64,43,30.22,30.17,30.13,10,10,10,17,10,22,0.00,2,,103
2013-2-11,83,73,63,67,65,62,93,74,55,30.20,30.14,30.09,10,10,8,17,9,23,0.00,1,,135
2013-2-12,83,73,63,70,67,64,100,83,65,30.11,30.05,29.97,10,9,6,17,8,22,0.00,1,,164
2013-2-13,82,76,69,72,70,68,100,85,69,30.01,29.97,29.93,9,6,4,22,11,25,0.00,4,,179
2013-2-14,79,70,60,71,62,57,97,86,74,30.03,29.97,29.88,10,6,0,18,9,26,1.56,7,Fog-Rain-Thunderstorm,30
2013-2-15,68,64,60,63,61,57,93,87,81,30.06,29.99,29.95,10,9,2,12,3,14,0.04,7,Rain,38
2013-2-16,69,64,59,62,53,40,93,70,46,30.11,29.99,29.92,10,9,7,26,11,38,T,5,,327
2013-2-17,61,52,43,41,27,18,58,41,23,30.33,30.24,30.12,10,10,10,21,10,30,0.00,1,,18
2013-2-18,73,57,40,49,39,26,73,53,33,30.32,30.27,30.21,10,10,10,20,10,23,0.00,1,,68
2013-2-19,80,66,52,64,57,48,93,74,54,30.20,30.14,30.09,10,10,7,16,6,22,0.00,1,,106
2013-2-20,82,70,58,64,59,51,100,70,39,30.12,30.07,30.01,10,6,0,12,3,14,0.00,3,Fog,333
2013-2-21,83,73,62,65,63,59,100,76,51,30.09,30.04,30.00,10,9,4,17,7,21,0.00,1,,131
2013-2-22,84,74,64,70,66,63,100,76,51,30.09,30.04,30.00,10,9,3,20,8,25,0.00,3,,139
2013-2-23,83,76,69,72,70,66,100,83,65,30.02,29.98,29.93,10,7,0,21,8,26,0.00,5,Fog,159
2013-2-24,83,76,68,72,70,66,100,82,63,29.99,29.94,29.91,9,4,0,15,5,18,0.00,5,Fog,211
2013-2-25,82,74,66,72,68,64,100,85,69,29.91,29.87,29.81,10,4,1,13,5,,0.00,5,,117
2013-2-26,90,83,75,72,70,65,84,68,52,29.92,29.85,29.77,10,8,6,23,13,35,T,4,,216
2013-2-27,73,70,66,66,63,56,87,71,54,29.99,29.94,29.88,10,8,2,10,3,12,0.07,6,Rain,312
2013-2-28,71,66,61,61,56,49,84,67,49,30.03,29.97,29.94,10,10,10,14,6,17,0.00,5,,345